EW3845 Weather Reports


Display with metric or nautical units.
time (UTC)temp
F
wind
direction
speed
MPH
gust
MPH
rain 1hr
in
rain 24hr
in
rain mn
in
humidity
%
barometer
mb
20260903020028 63 195 0.0 0.0 0.00 0.00 0.00 76 1017.8
20260903014526 63 195 0.0 0.0 0.00 0.00 0.00 76 1018.1
20260903013024 63 195 0.0 0.0 0.00 0.00 0.00 76 1018.4
20260903011524 63 202 0.0 0.0 0.00 0.00 0.00 76 1018.3
20260903010024 63 226 0.0 0.0 0.00 0.00 0.00 76 1018.4
20260903004522 63 226 0.0 0.0 0.00 0.00 0.00 76 1018.4
20260903003020 63 229 0.0 0.0 0.00 0.00 0.00 76 1018.5
20260903001525 63 229 0.0 0.0 0.00 0.00 0.00 76 1018.6
20260903000023 63 230 0.0 0.0 0.00 0.00 0.00 77 1018.8
20260902234517 63 231 0.0 0.0 0.00 0.00 0.00 77 1018.9
20260902233016 63 231 0.0 0.0 0.00 0.00 0.00 78 1019.0
20260902231522 63 261 0.0 0.0 0.00 0.00 0.00 78 1019.1
20260902230013 63 261 0.0 0.0 0.00 0.00 0.00 78 1019.3
20260902224513 63 360 0.0 0.0 0.00 0.00 0.00 78 1019.2
20260902223011 64 360 0.0 0.0 0.00 0.00 0.00 78 1019.3
20260902221509 64 360 0.0 0.0 0.00 0.00 0.00 77 1019.3
20260902220008 64 360 0.0 0.0 0.00 0.00 0.00 77 1019.5
20260902214507 64 360 0.0 0.0 0.00 0.00 0.00 77 1019.4
20260902213006 64 360 0.0 0.0 0.00 0.00 0.00 77 1019.5
20260902211510 65 360 0.0 0.0 0.00 0.00 0.00 76 1019.4
20260902210006 65 360 0.0 0.0 0.00 0.00 0.00 76 1019.5
20260902204506 65 360 0.0 0.0 0.00 0.00 0.00 76 1019.4
20260902203005 65 360 0.0 0.0 0.00 0.00 0.00 76 1019.7
20260902201504 65 360 0.0 0.0 0.00 0.00 0.00 76 1019.7
20260902200004 65 360 0.0 0.0 0.00 0.00 0.00 75 1019.7
20260902194504 65 360 0.0 0.0 0.00 0.00 0.00 75 1019.7
20260902193004 66 360 0.0 0.0 0.00 0.00 0.00 74 1019.8
20260902191503 67 360 0.0 0.0 0.00 0.00 0.00 74 1019.6
20260902190007 67 360 0.0 0.0 0.00 0.00 0.00 72 1019.7
20260902184503 67 360 0.0 0.0 0.00 0.00 0.00 71 1019.7
20260902183002 68 360 0.0 0.0 0.00 0.00 0.00 70 1019.6
20260902181501 68 360 0.0 0.0 0.00 0.00 0.00 70 1019.5
20260902180005 69 360 0.0 0.0 0.00 0.00 0.00 68 1019.4
20260902174601 69 360 0.0 0.0 0.00 0.00 0.00 67 1019.3
20260902173100 69 290 0.0 0.0 0.00 0.00 0.00 67 1019.2
20260902171618 69 287 0.0 0.0 0.00 0.00 0.00 65 1019.1
20260902170059 70 360 0.0 0.0 0.00 0.00 0.00 64 1019.2
20260902164557 71 285 0.0 0.0 0.00 0.00 0.00 64 1019.3
20260902164505 70 285 0.0 0.0 0.00 0.00 0.00 64 1019.1
20260902164104 71 285 0.0 0.0 0.00 0.00 0.00 64 1019.4
20260902163556 71 285 0.0 0.0 0.00 0.00 0.00 65 1019.3
20260902163042 71 285 0.0 0.0 0.00 0.00 0.00 63 1019.4
20260902162555 71 285 0.0 0.0 0.00 0.00 0.00 63 1019.4
20260902162100 71 286 0.0 0.0 0.00 0.00 0.00 64 1019.5
20260902161652 70 284 0.0 0.0 0.00 0.00 0.00 64 1019.3
20260902161551 71 284 0.0 0.0 0.00 0.00 0.00 64 1019.5
20260902161117 71 285 0.0 0.0 0.00 0.00 0.00 64 1019.5
20260902160547 71 285 0.0 0.0 0.00 0.00 0.00 62 1019.5
20260902160155 71 285 0.0 0.0 0.00 0.00 0.00 62 1019.4
20260902160054 71 285 0.0 0.0 0.00 0.00 0.00 62 1019.6
20260902155546 71 288 0.0 0.0 0.00 0.00 0.00 62 1019.5
20260902155114 71 360 0.0 0.0 0.00 0.00 0.00 62 1019.5
20260902154648 71 360 0.0 0.0 0.00 0.00 0.00 62 1019.3
20260902154545 71 360 0.0 0.0 0.00 0.00 0.00 62 1019.5
20260902154054 72 287 0.0 0.0 0.00 0.00 0.00 61 1019.6
20260902153602 72 288 0.0 0.0 0.00 0.00 0.00 61 1019.6
20260902153049 72 282 0.0 0.0 0.00 0.00 0.00 62 1019.6
20260902153002 72 277 0.0 0.0 0.00 0.00 0.00 62 1019.4
20260902152600 72 360 0.0 0.0 0.00 0.00 0.00 62 1019.7
20260902152045 72 360 0.0 0.0 0.00 0.00 0.00 63 1019.7
20260902151600 72 360 0.0 0.0 0.00 0.00 0.00 63 1019.7
20260902151047 72 285 0.0 0.0 0.00 0.00 0.00 60 1019.7
20260902150559 72 360 0.0 0.0 0.00 0.00 0.00 62 1019.7
20260902150105 72 294 0.0 0.0 0.00 0.00 0.00 64 1019.7
20260902145557 72 292 0.0 0.0 0.00 0.00 0.00 64 1019.8
20260902145047 72 360 0.0 0.0 0.00 0.00 0.00 63 1019.9
20260902144602 72 360 0.0 0.0 0.00 0.00 0.00 65 1019.8
20260902143031 71 360 0.0 0.0 0.00 0.00 0.00 65 1019.6
20260902141539 71 292 0.0 0.0 0.00 0.00 0.00 65 1019.7
20260902140029 71 292 0.0 0.0 0.00 0.00 0.00 67 1019.7
20260902134530 71 292 0.0 0.0 0.00 0.00 0.00 68 1019.8
20260902133032 71 360 0.0 0.0 0.00 0.00 0.00 67 1019.8
20260902131528 71 360 0.0 0.0 0.00 0.00 0.00 67 1019.9
20260902130032 71 287 0.0 0.0 0.00 0.00 0.00 67 1019.9
20260902124528 71 289 0.0 0.0 0.00 0.00 0.00 68 1020.0
20260902123027 71 288 0.0 0.0 0.00 0.00 0.00 67 1020.1
20260902121526 71 286 0.0 0.0 0.00 0.00 0.00 69 1020.2
20260902120027 72 286 0.0 0.0 0.00 0.00 0.00 67 1020.1
20260902114528 73 360 0.0 0.0 0.00 0.00 0.00 66 1020.0
20260902113028 73 286 0.0 0.0 0.00 0.00 0.00 66 1020.1
20260902111522 72 290 0.0 0.0 0.00 0.00 0.00 68 1020.1
20260902110020 71 360 0.0 0.0 0.00 0.00 0.00 71 1020.1
20260902104523 71 360 0.0 0.0 0.00 0.00 0.00 71 1020.1
20260902103015 70 254 0.0 0.0 0.00 0.00 0.00 70 1020.0
20260902101513 70 360 0.0 0.0 0.00 0.00 0.00 72 1020.4
20260902100009 68 298 0.0 0.0 0.00 0.00 0.00 74 1020.3
20260902094508 68 360 0.0 0.0 0.00 0.00 0.00 74 1020.2
20260902093006 68 360 0.0 0.0 0.00 0.00 0.00 73 1020.3
20260902091510 68 250 0.0 0.0 0.00 0.00 0.00 74 1020.2
20260902090003 67 360 0.0 0.0 0.00 0.00 0.00 78 1020.2
20260902084604 65 360 0.0 0.0 0.00 0.00 0.00 78 1020.1
20260902083058 65 360 0.0 0.0 0.00 0.00 0.00 81 1020.1
20260902081556 63 360 0.0 0.0 0.00 0.00 0.00 83 1020.0
20260902080051 62 296 0.0 0.0 0.00 0.00 0.00 84 1020.1
20260902074606 62 360 0.0 0.0 0.00 0.00 0.00 85 1020.0
20260902073045 61 360 0.0 0.0 0.00 0.00 0.00 86 1019.9
20260902071543 60 285 0.0 0.0 0.00 0.00 0.00 88 1019.8
20260902070042 59 284 0.0 0.0 0.00 0.00 0.00 90 1019.7
20260902064543 59 284 0.0 0.0 0.00 0.00 0.00 90 1019.8
20260902063100 59 284 0.0 0.0 0.00 0.00 0.00 90 1019.7
20260902061539 59 284 0.0 0.0 0.00 0.00 0.00 91 1019.6
20260902060052 59 284 0.0 0.0 0.00 0.00 0.00 91 1019.6
20260902054539 58 284 0.0 0.0 0.00 0.00 0.00 91 1019.7
20260902053037 58 284 0.0 0.0 0.00 0.00 0.00 92 1019.5
20260902051546 58 284 0.0 0.0 0.00 0.00 0.00 92 1019.4
20260902050035 58 284 0.0 0.0 0.00 0.00 0.00 92 1019.4
20260902044537 58 284 0.0 0.0 0.00 0.00 0.00 92 1019.2
20260902043041 58 284 0.0 0.0 0.00 0.00 0.00 92 1019.0
20260902041549 58 284 0.0 0.0 0.00 0.00 0.00 92 1019.0
20260902040032 58 284 0.0 0.0 0.00 0.00 0.00 92 1019.1
20260902034533 58 284 0.0 0.0 0.00 0.00 0.00 92 1019.2
20260902033031 59 284 0.0 0.0 0.00 0.00 0.00 92 1019.1
20260902031532 59 284 0.0 0.0 0.00 0.00 0.00 92 1019.1
20260902030030 59 284 0.0 0.0 0.00 0.00 0.00 92 1019.0
20260902024530 59 284 0.0 0.0 0.00 0.00 0.00 92 1019.2
20260902023029 59 284 0.0 0.0 0.00 0.00 0.00 92 1019.1
20260902021528 59 284 0.0 0.0 0.00 0.00 0.00 92 1019.4